This demonstration page uses our WeatherBlox Daily Observations layout. Learn more.

Left ArrowRight Arrow

Hourly Observations for December 25, 2018

Temp ( °F °C ) Dew Point ( °F °C ) Humidity (%) Winds ( mph kmh ) Pressure ( in mb ) Visibility ( mi km ) Precip ( " mm )
12:53 am 00:53 Mostly Clear with Mist and Fog 25 -3.9 22 -5.6 88 88 W 3 6 30.08 1019 4 6 0.00 0.00
1:07 am 01:07 Mostly Cloudy with Mist and Fog 26 -3.3 24 -4.4 92 92 Calm 30.15 1021 4 6 0.00 0.00
1:15 am 01:15 Mostly Cloudy with Mist and Fog 26 -3.3 25 -3.9 96 96 Calm 30.15 1021 1 2 0.00 0.00
1:22 am 01:22 Mostly Cloudy with Freezing Fog 25 -4 25 -4 100 100 Calm 30.15 1021 0 0 0.00 0.00
1:53 am 01:53 Mostly Cloudy with Freezing Fog 25 -3.9 23 -5 92 92 Calm 30.08 1019 0 0 0.00 0.00
2:53 am 02:53 Mostly Cloudy with Freezing Fog 23 -5 21 -6.1 92 92 WNW 5 7 30.11 1020 0 0 0.00 0.00
3:23 am 03:23 Cloudy with Mist and Fog 24 -4.4 22 -5.6 91 91 Calm 30.21 1023 2 3 0.00 0.00
3:32 am 03:32 Mostly Cloudy with Mist and Fog 25 -4 21 -6 86 86 WNW 3 6 30.18 1022 1 1 0.00 0.00
3:53 am 03:53 Mostly Cloudy with Freezing Fog 25 -3.9 21 -6.1 85 85 WNW 6 9 30.13 1020 0 0 0.00 0.00
4:14 am 04:14 Mostly Cloudy with Mist and Fog 25 -4 21 -6 86 86 NW 5 7 30.18 1022 2 3 0.00 0.00
4:16 am 04:16 Partly Cloudy with Mist and Fog 24 -4.4 21 -6.1 88 88 NW 5 7 30.21 1023 4 6 0.00 0.00
4:53 am 04:53 Clear with Mist and Fog 25 -3.9 22 -5.6 88 88 Calm 30.12 1020 6 10 0.00 0.00
5:32 am 05:32 Clear with Mist and Fog 25 -4 19 -7 80 80 WNW 3 6 30.18 1022 2 3 0.00 0.00
5:38 am 05:38 Mostly Cloudy with Freezing Fog 25 -4 21 -6 86 86 Calm 30.21 1023 1 1 0.00 0.00
5:53 am 05:53 Mostly Cloudy with Mist and Fog 25 -3.9 22 -5.6 88 88 Calm 30.14 1021 1 2 0.00 0.00
6:06 am 06:06 Mostly Cloudy with Freezing Fog 25 -4 23 -5 93 93 Calm 30.21 1023 0 0 0.00 0.00
6:53 am 06:53 Mostly Cloudy with Freezing Fog 25 -3.9 22 -5.6 88 88 Calm 30.15 1021 0 0 0.00 0.00
7:53 am 07:53 Mostly Cloudy with Freezing Fog 25 -3.9 22 -5.6 88 88 Calm 30.18 1022 0 0 0.00 0.00
8:53 am 08:53 Mostly Cloudy with Freezing Fog 25 -3.9 22 -5.6 88 88 W 3 6 30.21 1023 0 0 0.00 0.00
9:15 am 09:15 Cloudy with Mist and Fog 27 -2.8 24 -4.4 89 89 WNW 3 6 30.24 1024 2 3 0.00 0.00
9:20 am 09:20 Cloudy with Mist and Fog 28 -2 25 -4 86 86 W 5 7 30.24 1024 1 1 0.00 0.00
9:53 am 09:53 Mostly Cloudy with Freezing Fog 29 -1.7 27 -2.8 92 92 Calm 30.23 1024 5 8 0.00 0.00
10:53 am 10:53 Mostly Cloudy with Fog 33 0.6 30 -1.1 89 89 ENE 7 11 30.20 1023 5 8 0.00 0.00
11:53 am 11:53 Mostly Cloudy with Fog 34 1.1 34 1.1 100 100 Calm 30.19 1022 0 0 0.00 0.00
12:28 pm 12:28 Mostly Cloudy with Mist and Fog 36 2 36 2 100 100 SE 5 7 30.18 1022 2 2 0.00 0.00
12:53 pm 12:53 Cloudy with Mist and Fog 36 2.2 34 1.1 93 93 VRB 5 7 30.19 1022 2 3 0.00 0.00
1:01 pm 13:01 Cloudy with Mist and Fog 36 2 34 1 93 93 S 6 9 30.18 1022 3 4 0.00 0.00
1:23 pm 13:23 Cloudy with Mist and Fog 37 2.8 35 1.7 93 93 Calm 30.21 1023 3 5 0.00 0.00
1:48 pm 13:48 Mostly Cloudy with Mist and Fog 37 3 34 1 87 87 Calm 30.18 1022 5 8 0.00 0.00
1:53 pm 13:53 Mostly Cloudy with Mist and Fog 38 3.3 35 1.7 89 89 Calm 30.18 1022 5 8 0.00 0.00
2:09 pm 14:09 Partly Cloudy 40 4.4 35 1.7 83 83 VRB 5 7 30.15 1021 8 13 0.00 0.00
2:53 pm 14:53 Sunny 41 5 34 1.1 76 76 SE 5 7 30.20 1023 7 11 0.00 0.00
3:53 pm 15:53 Sunny 38 3.3 33 0.6 83 83 ENE 10 17 30.19 1023 9 14 0.00 0.00
4:53 pm 16:53 Sunny 35 1.7 32 0 89 89 E 5 7 30.21 1023 8 13 0.00 0.00
5:34 pm 17:34 Partly Cloudy with Mist and Fog 34 1 30 -1 87 87 E 8 13 30.21 1023 6 10 0.00 0.00
5:40 pm 17:40 Mostly Cloudy with Mist and Fog 34 1.1 32 0 92 92 E 10 17 30.21 1023 3 4 0.00 0.00
5:45 pm 17:45 Mostly Cloudy with Mist and Fog 34 1.1 32 0 92 92 E 10 17 30.21 1023 1 1 0.00 0.00
5:53 pm 17:53 Mostly Cloudy with Fog 34 1.1 32 0 92 92 E 7 11 30.21 1023 0 0 0.00 0.00
6:53 pm 18:53 Mostly Cloudy with Fog 33 0.6 32 0 96 96 E 9 15 30.23 1024 0 0 0.00 0.00
7:53 pm 19:53 Mostly Cloudy with Fog 32 0 31 -0.6 96 96 E 13 20 30.24 1024 0 0 0.00 0.00
8:53 pm 20:53 Mostly Cloudy with Fog 33 0.6 32 0 96 96 E 10 17 30.23 1024 0 0 0.00 0.00
9:53 pm 21:53 Mostly Cloudy with Fog 34 1.1 33 0.6 97 97 E 9 15 30.22 1023 0 0 0.00 0.00
10:53 pm 22:53 Cloudy with Mist and Fog 34 1.1 33 0.6 97 97 E 7 11 30.22 1023 1 2 0.00 0.00
11:53 pm 23:53 Cloudy with Mist and Fog 33 0.6 32 0 96 96 E 8 13 30.21 1023 1 2 0.00 0.00

Powered by AerisWeather